TimeCST,TemperatureF,Dew PointF,Humidity,Sea Level PressureIn,VisibilityMPH,Wind Direction,Wind SpeedMPH,Gust SpeedMPH,PrecipitationIn,Events,Conditions,WindDirDegrees,DateUTC
12:58 AM,2.7,-2.0,81,30.62,10.0,ESE,1.2,-,N/A,,Overcast,110,2013-12-08 06:58:00
1:58 AM,5.2,-0.6,77,30.61,10.0,ESE,1.2,-,N/A,,Overcast,110,2013-12-08 07:58:00
2:58 AM,5.9,-0.4,75,30.59,10.0,ENE,2.3,-,N/A,,Mostly Cloudy,60,2013-12-08 08:58:00
3:13 AM,5.0,-0.4,78,30.50,10.0,East,3.5,-,N/A,Snow,Light Snow,90,2013-12-08 09:13:00
3:58 AM,5.7,0.3,78,30.56,9.0,ENE,2.3,-,0.00,Snow,Light Snow,70,2013-12-08 09:58:00
4:03 AM,5.0,-0.4,78,30.47,7.0,NE,4.6,-,N/A,Snow,Light Snow,50,2013-12-08 10:03:00
4:08 AM,5.0,-0.4,78,30.47,6.0,ENE,4.6,-,N/A,Snow,Light Snow,70,2013-12-08 10:08:00
4:13 AM,5.0,-0.4,78,30.47,5.0,ENE,3.5,-,N/A,Snow,Light Snow,70,2013-12-08 10:13:00
4:23 AM,5.0,-0.4,78,30.47,6.0,ENE,4.6,-,N/A,Snow,Light Snow,70,2013-12-08 10:23:00
4:44 AM,5.0,-0.4,78,30.46,7.0,ENE,3.5,-,N/A,,Overcast,60,2013-12-08 10:44:00
4:56 AM,5.0,1.4,85,30.46,7.0,ENE,3.5,-,N/A,Snow,Light Snow,70,2013-12-08 10:56:00
4:58 AM,5.4,0.7,81,30.54,7.0,East,3.5,-,0.00,Snow,Light Snow,80,2013-12-08 10:58:00
5:43 AM,5.0,1.4,85,30.45,5.0,East,4.6,-,N/A,Snow,Light Snow,80,2013-12-08 11:43:00
5:58 AM,5.7,1.6,83,30.52,5.0,ENE,5.8,-,0.00,Snow,Light Snow,70,2013-12-08 11:58:00
6:04 AM,5.0,1.4,85,30.44,8.0,NE,4.6,-,N/A,,Overcast,50,2013-12-08 12:04:00
6:09 AM,5.0,1.4,85,30.44,9.0,ENE,3.5,-,N/A,,Overcast,60,2013-12-08 12:09:00
6:18 AM,5.0,1.4,85,30.44,10.0,Variable,4.6,-,N/A,,Overcast,0,2013-12-08 12:18:00
6:58 AM,6.1,2.1,84,30.52,10.0,East,6.9,-,0.00,,Overcast,90,2013-12-08 12:58:00
7:33 AM,5.0,1.4,85,30.41,10.0,ENE,6.9,-,N/A,,Overcast,70,2013-12-08 13:33:00
7:42 AM,5.0,1.4,85,30.40,10.0,East,8.1,-,N/A,Snow,Light Snow,80,2013-12-08 13:42:00
7:47 AM,5.0,1.4,85,30.40,8.0,East,6.9,-,N/A,Snow,Light Snow,90,2013-12-08 13:47:00
7:52 AM,6.8,1.4,79,30.40,7.0,ENE,6.9,-,N/A,Snow,Light Snow,70,2013-12-08 13:52:00
7:58 AM,5.0,1.4,85,30.48,5.0,East,5.8,-,N/A,Snow,Light Snow,80,2013-12-08 13:58:00
8:08 AM,6.8,1.4,79,30.41,4.0,East,6.9,-,N/A,Snow,Light Snow,100,2013-12-08 14:08:00
8:58 AM,6.8,3.2,85,30.47,3.0,East,8.1,-,N/A,Snow,Light Snow,80,2013-12-08 14:58:00
9:58 AM,8.6,3.2,79,30.45,10.0,East,9.2,-,N/A,Snow,Light Snow,100,2013-12-08 15:58:00
10:32 AM,10.4,3.2,73,30.36,10.0,ESE,8.1,-,N/A,,Overcast,110,2013-12-08 16:32:00
10:38 AM,10.4,3.2,73,30.36,5.0,East,8.1,-,N/A,Snow,Light Snow,100,2013-12-08 16:38:00
10:58 AM,10.4,3.2,73,30.41,5.0,East,10.4,-,N/A,Snow,Light Snow,100,2013-12-08 16:58:00
11:58 AM,10.4,5.0,79,30.36,4.0,East,9.2,-,N/A,Snow,Light Snow,100,2013-12-08 17:58:00
12:45 PM,12.2,6.8,79,30.23,2.5,East,9.2,-,N/A,Snow,Light Snow,100,2013-12-08 18:45:00
12:58 PM,12.2,6.8,79,30.30,2.5,East,8.1,-,N/A,Snow,Light Snow,90,2013-12-08 18:58:00
1:43 PM,12.2,8.6,85,30.19,1.0,East,6.9,-,N/A,Snow,Light Snow,90,2013-12-08 19:43:00
1:58 PM,12.2,8.6,85,30.26,0.8,East,6.9,-,N/A,Snow,Light Snow,90,2013-12-08 19:58:00
2:07 PM,12.2,8.6,85,30.17,1.2,East,6.9,-,N/A,Snow,Light Snow,90,2013-12-08 20:07:00
2:58 PM,12.2,8.6,85,30.22,1.8,East,9.2,-,N/A,Snow,Light Snow,90,2013-12-08 20:58:00
3:26 PM,12.2,8.6,85,30.15,2.0,East,9.2,-,N/A,Snow,Light Snow,90,2013-12-08 21:26:00
3:45 PM,12.2,8.6,85,30.14,1.8,East,8.1,-,N/A,Snow,Light Snow,80,2013-12-08 21:45:00
3:50 PM,12.2,8.6,85,30.13,1.8,East,8.1,-,N/A,Snow,Light Snow,80,2013-12-08 21:50:00
3:55 PM,12.2,8.6,85,30.13,1.8,ENE,5.8,-,N/A,Snow,Light Snow,70,2013-12-08 21:55:00
3:58 PM,12.4,9.3,88,30.21,2.0,East,5.8,-,0.00,Snow,Light Snow,80,2013-12-08 21:58:00
4:03 PM,12.2,8.6,85,30.12,1.8,ENE,5.8,-,N/A,Snow,Light Snow,70,2013-12-08 22:03:00
4:08 PM,12.2,8.6,85,30.12,1.2,ENE,5.8,-,N/A,Snow,Light Snow,70,2013-12-08 22:08:00
4:18 PM,12.2,8.6,85,30.12,1.8,East,6.9,-,N/A,Snow,Light Snow,80,2013-12-08 22:18:00
4:23 PM,12.2,8.6,85,30.12,1.5,East,8.1,-,N/A,Snow,Light Snow,80,2013-12-08 22:23:00
4:28 PM,12.2,8.6,85,30.12,1.2,East,6.9,-,N/A,Snow,Light Snow,80,2013-12-08 22:28:00
4:33 PM,12.2,8.6,85,30.11,1.5,ENE,5.8,-,N/A,Snow,Light Snow,70,2013-12-08 22:33:00
4:38 PM,12.2,8.6,85,30.11,1.5,ENE,5.8,-,N/A,Snow,Light Snow,70,2013-12-08 22:38:00
4:43 PM,12.2,8.6,85,30.11,2.0,ENE,4.6,-,N/A,Snow,Light Snow,70,2013-12-08 22:43:00
4:48 PM,12.2,8.6,85,30.11,2.5,ENE,3.5,-,N/A,Snow,Light Snow,60,2013-12-08 22:48:00
4:53 PM,12.2,8.6,85,30.10,2.5,ENE,6.9,-,N/A,Snow,Light Snow,70,2013-12-08 22:53:00
4:58 PM,11.8,9.1,89,30.17,3.0,East,4.6,-,0.00,Snow,Light Snow,80,2013-12-08 22:58:00
5:08 PM,12.2,8.6,85,30.10,2.5,ENE,3.5,-,N/A,Snow,Light Snow,70,2013-12-08 23:08:00
5:18 PM,12.2,8.6,85,30.10,2.5,ENE,5.8,-,N/A,Snow,Light Snow,70,2013-12-08 23:18:00
5:22 PM,12.2,8.6,85,30.09,3.0,East,6.9,-,N/A,,Overcast,80,2013-12-08 23:22:00
5:36 PM,12.2,8.6,85,30.08,3.0,East,4.6,-,N/A,Snow,Light Snow,80,2013-12-08 23:36:00
5:46 PM,12.2,8.6,85,30.08,3.0,ENE,6.9,-,N/A,Snow,Light Snow,70,2013-12-08 23:46:00
5:56 PM,12.2,8.6,85,30.07,4.0,ENE,6.9,-,N/A,Snow,Light Snow,70,2013-12-08 23:56:00
5:58 PM,12.0,9.3,89,30.14,4.0,ENE,6.9,-,0.00,Snow,Light Snow,70,2013-12-08 23:58:00
6:08 PM,12.2,8.6,85,30.07,4.0,ENE,5.8,-,N/A,Snow,Light Snow,70,2013-12-09 00:08:00
6:09 PM,12.2,8.6,85,30.07,4.0,ENE,4.6,-,N/A,,Overcast,70,2013-12-09 00:09:00
6:20 PM,12.2,8.6,85,30.07,4.0,ENE,3.5,-,N/A,,Overcast,60,2013-12-09 00:20:00
6:25 PM,12.2,8.6,85,30.07,4.0,NE,3.5,-,N/A,,Overcast,40,2013-12-09 00:25:00
6:34 PM,12.2,8.6,85,30.06,5.0,NNE,2.3,-,N/A,Snow,Light Snow,30,2013-12-09 00:34:00
6:39 PM,12.2,8.6,85,30.06,5.0,NE,2.3,-,N/A,Snow,Light Snow,50,2013-12-09 00:39:00
6:44 PM,12.2,8.6,85,30.06,4.0,NNE,2.3,-,N/A,Snow,Light Snow,20,2013-12-09 00:44:00
6:54 PM,12.2,8.6,85,30.06,6.0,NNE,3.5,-,N/A,Snow,Light Snow,30,2013-12-09 00:54:00
6:58 PM,11.7,9.3,90,30.13,7.0,Variable,3.5,-,0.00,Snow,Light Snow,0,2013-12-09 00:58:00
6:59 PM,12.2,8.6,85,30.06,7.0,North,2.3,-,N/A,,Overcast,10,2013-12-09 00:59:00
7:00 PM,12.2,8.6,85,30.06,7.0,NNE,2.3,-,N/A,Snow,Light Snow,20,2013-12-09 01:00:00
7:03 PM,12.2,8.6,85,30.06,7.0,North,1.2,-,N/A,,Overcast,10,2013-12-09 01:03:00
7:07 PM,10.4,8.6,92,30.06,8.0,North,3.5,-,N/A,Snow,Light Snow,10,2013-12-09 01:07:00
7:10 PM,10.4,8.6,92,30.06,8.0,NNE,3.5,-,N/A,,Overcast,30,2013-12-09 01:10:00
7:20 PM,10.4,8.6,92,30.06,10.0,NNE,2.3,-,N/A,,Overcast,30,2013-12-09 01:20:00
7:35 PM,10.4,8.6,92,30.06,9.0,North,2.3,-,N/A,,Overcast,10,2013-12-09 01:35:00
7:50 PM,10.4,6.8,85,30.05,6.0,North,1.2,-,N/A,Snow,Light Snow,10,2013-12-09 01:50:00
7:55 PM,10.4,8.6,92,30.05,5.0,Calm,Calm,-,N/A,Snow,Light Snow,0,2013-12-09 01:55:00
7:58 PM,9.9,7.7,91,30.12,4.0,Calm,Calm,-,0.00,Snow,Light Snow,0,2013-12-09 01:58:00
8:08 PM,10.4,6.8,85,30.05,6.0,North,1.2,-,N/A,Snow,Light Snow,360,2013-12-09 02:08:00
8:33 PM,8.6,6.8,92,30.03,4.0,North,2.3,-,N/A,Snow,Light Snow,10,2013-12-09 02:33:00
8:53 PM,10.4,6.8,85,30.02,5.0,NNW,3.5,-,N/A,Snow,Light Snow,340,2013-12-09 02:53:00
8:58 PM,10.0,7.7,90,30.09,6.0,North,3.5,-,0.00,Snow,Light Snow,350,2013-12-09 02:58:00
9:03 PM,10.4,8.6,92,30.02,7.0,North,3.5,-,N/A,Snow,Light Snow,350,2013-12-09 03:03:00
9:13 PM,10.4,8.6,92,30.01,9.0,North,4.6,-,N/A,Snow,Light Snow,360,2013-12-09 03:13:00
9:23 PM,10.4,8.6,92,30.01,10.0,North,4.6,-,N/A,Snow,Light Snow,350,2013-12-09 03:23:00
9:28 PM,10.4,8.6,92,30.01,10.0,NNW,3.5,-,N/A,,Overcast,340,2013-12-09 03:28:00
9:33 PM,10.4,8.6,92,30.01,10.0,NNW,3.5,-,N/A,Snow,Light Snow,330,2013-12-09 03:33:00
9:35 PM,10.4,8.6,92,30.01,10.0,NNW,3.5,-,N/A,,Overcast,330,2013-12-09 03:35:00
9:37 PM,10.4,8.6,92,30.01,10.0,NNW,3.5,-,N/A,Snow,Light Snow,340,2013-12-09 03:37:00
9:42 PM,10.4,8.6,92,30.01,7.0,NNW,3.5,-,N/A,Snow,Light Snow,340,2013-12-09 03:42:00
9:47 PM,10.4,8.6,92,30.01,5.0,NNW,2.3,-,N/A,Snow,Light Snow,340,2013-12-09 03:47:00
9:58 PM,10.9,8.2,89,30.07,4.0,NNW,1.2,-,0.00,Snow,Light Snow,340,2013-12-09 03:58:00
10:03 PM,10.4,8.6,92,30.00,5.0,NNW,2.3,-,N/A,Snow,Light Snow,330,2013-12-09 04:03:00
10:23 PM,10.4,8.6,92,30.00,3.0,NW,3.5,-,N/A,Snow,Light Snow,320,2013-12-09 04:23:00
10:26 PM,10.4,8.6,92,30.00,3.0,NNW,3.5,-,N/A,Snow,Light Snow,330,2013-12-09 04:26:00
10:36 PM,10.4,8.6,92,29.99,4.0,NW,3.5,-,N/A,Snow,Light Snow,320,2013-12-09 04:36:00
10:41 PM,10.4,8.6,92,29.99,5.0,NW,3.5,-,N/A,Snow,Light Snow,310,2013-12-09 04:41:00
10:46 PM,10.4,8.6,92,29.99,6.0,WNW,4.6,-,N/A,Snow,Light Snow,300,2013-12-09 04:46:00
10:58 PM,10.9,8.6,90,30.06,6.0,WNW,4.6,-,0.00,Snow,Light Snow,300,2013-12-09 04:58:00
11:33 PM,10.4,8.6,92,29.97,5.0,WNW,3.5,-,N/A,Snow,Light Snow,300,2013-12-09 05:33:00
11:38 PM,10.4,8.6,92,29.97,5.0,WNW,3.5,-,N/A,Snow,Light Snow,300,2013-12-09 05:38:00
11:43 PM,10.4,8.6,92,29.97,5.0,NW,3.5,-,N/A,Snow,Light Snow,310,2013-12-09 05:43:00
11:53 PM,10.4,8.6,92,29.97,6.0,NW,3.5,-,N/A,Snow,Light Snow,310,2013-12-09 05:53:00
11:58 PM,10.4,8.6,92,30.04,6.0,NW,2.3,-,0.00,Snow,Light Snow,310,2013-12-09 05:58:00